Regional Weather Roundup
Issued by NWS Binghamton, NY

Home | Current Version | Previous Version | Text Only | Print | Product List | Glossary On
Versions: 1 2 3 4 5 6 7 8 9 10 11 12 13 14 15 16 17 18 19 20 21 22 23 24 25 26 27 28 29 30 31 32 33 34 35 36 37 38 39 40 41 42 43 44 45 46 47 48 49 50
000
ASUS41 KBGM 012210
RWRBGM

REGIONAL WEATHER ROUNDUP
NATIONAL WEATHER SERVICE BINGHAMTON NY
600 PM EDT SAT OCT 01 2016

Note: "fair" indicates few or no clouds below 12,000 feet with no
significant weather and/or obstructions to visibility.

* = Station(s) that does not report precipitation, such as rain,
snow, etc, also no thunder or fog.

NYZ009-015>018-022>025-036-037-044>046-055>057-062-012300
...Central New York...

CITY           SKY/WX    TMP DP  RH WIND       PRES   REMARKS
Binghamton     CLOUDY    58  55  90 SE9       30.11F
Cortland       CLOUDY    63  59  88 CALM      30.10F
Dansville      MOCLDY    62  58  86 SE10      30.08S
Elmira         RAIN      59  57  93 E3        30.07F FOG
Ithaca         CLOUDY    62  58  86 CALM      30.10F
Hamilton       CLOUDY    63  55  77 SE5       30.13F
Hornell        CLOUDY    61  57  88 SE3       30.11S
Monticello     CLOUDY    54  52  94 E10       30.17F
Norwich        CLOUDY    63  55  77 CALM      30.13S
Oneonta        CLOUDY    55  55 100 SE3       30.15S
Penn Yan       RAIN      60  58  92 CALM      30.12R FOG
Rome           CLOUDY    59  53  80 E12       30.15F
Sidney         CLOUDY    64  64 100 SE3       30.11F
Syracuse       CLOUDY    62  54  77 E13       30.09F
$$

PAZ038>040-043-044-047-048-072-012300
...Northeast Pennsylvania...

CITY           SKY/WX    TMP DP  RH WIND       PRES   REMARKS
Hazleton       RAIN      55  55 100 E7        30.14R
Scranton       CLOUDY    61  56  83 NE8       30.10F
$$
&&
KEY
WCI = Wind Chill Index
VSB = Visibility
HX  = Heat Index
$$



USA.gov is the U.S. government's official web portal to all federal, state and local government web resources and services.